Fort Knox, KY

1:42 AM EDT on October 19, 2017 (GMT -0400)
Godman Army Air Field

Weather History for KFTK - March, 2014

Change the Weather History Date:

Saturday, March 1, 2014

  Actual Average Record
Temperature  
Mean Temperature 46 °F -  
Max Temperature 55 °F 48 °F 73 °F (2006)
Min Temperature 36 °F 30 °F 21 °F (2001)
Degree Days  
Heating Degree Days 20    
Moisture  
Dew Point 30 °F    
Average Humidity 54    
Maximum Humidity 68    
Minimum Humidity 39    
Precipitation  
Precipitation 0.00 in - - ()
Sea Level Pressure  
Sea Level Pressure 30.13 in    
Wind  
Wind Speed 5 mph (SSW)    
Max Wind Speed 12 mph    
Max Gust Speed -    
Visibility 10 miles    
Events      
Averages and records for this station are not official NWS values.
T = Trace of Precipitation, MM = Missing Value Source: NWS Daily Summary

Daily Weather History Graph

Daily Weather History Graph

Search for Another Location

Airport or City:

Trip Planner

Search our weather history database for the weather conditions in past years. The results will help you decide how hot, cold, wet, or windy it might be!

Date:

Astronomy

Mar. 01, 2014 Rise Set
Actual Time 7:15 AM EST 6:37 PM EST
Civil Twilight 6:49 AM EST 7:03 PM EST
Nautical Twilight 6:18 AM EST 7:34 PM EST
Astronomical Twilight 5:48 AM EST 8:04 PM EST
Moon 7:09 AM EST (3/1) 7:22 PM EST (3/1)
Length of Visible Light 12h 14m
Length of Day
11h 21m
New Moon, 0% of the Moon is Illuminated
Mar 1
New Moon
Mar 8
First Quarter
Mar 16
Full
Mar 23
Last Quarter
Mar 30
New

Hourly Weather History & Observations

Time (EST) Temp. Windchill Dew Point Humidity Pressure Visibility Wind Dir Wind Speed Gust Speed Precip Events Conditions
12:58 AM 36.0 °F - 14.5 °F 42% 30.08 in 10.0 mi ESE 2.3 mph - N/A   Overcast
1:58 AM 37.0 °F 29.8 °F 15.1 °F 41% 30.09 in 10.0 mi South 10.4 mph - N/A   Overcast
2:58 AM 39.9 °F 34.5 °F 16.9 °F 39% 30.10 in 10.0 mi South 8.1 mph - N/A   Overcast
3:58 AM 40.6 °F 36.7 °F 25.9 °F 56% 30.10 in 10.0 mi South 5.8 mph - N/A   Overcast
4:58 AM 39.4 °F 37.2 °F 26.8 °F 61% 30.11 in 10.0 mi SSE 3.5 mph - N/A   Overcast
5:58 AM 40.3 °F 37.1 °F 28.4 °F 63% 30.12 in 10.0 mi South 4.6 mph - N/A   Overcast
6:58 AM 40.3 °F 36.3 °F 29.8 °F 66% 30.14 in 10.0 mi SSW 5.8 mph - N/A   Overcast
7:58 AM 40.3 °F 38.2 °F 30.6 °F 68% 30.17 in 10.0 mi South 3.5 mph - N/A   Overcast
8:58 AM 41.7 °F - 32.0 °F 68% 30.19 in 10.0 mi West 1.2 mph - N/A   Overcast
9:58 AM 45.3 °F 43.0 °F 33.1 °F 62% 30.18 in 10.0 mi SE 4.6 mph - N/A   Overcast
10:58 AM 48.4 °F - 32.7 °F 55% 30.18 in 10.0 mi Variable 2.3 mph - N/A   Overcast
11:58 AM 50.9 °F - 32.2 °F 49% 30.17 in 10.0 mi SSW 4.6 mph - N/A   Overcast
12:58 PM 53.1 °F - 32.2 °F 45% 30.15 in 10.0 mi SW 6.9 mph - N/A   Overcast
1:58 PM 54.1 °F - 32.5 °F 44% 30.14 in 10.0 mi Variable 3.5 mph - N/A   Overcast
2:58 PM 55.8 °F - 32.7 °F 42% 30.12 in 10.0 mi SSW 8.1 mph - N/A   Overcast
3:58 PM 55.9 °F - 32.7 °F 41% 30.10 in 10.0 mi SSW 6.9 mph - N/A   Overcast
4:58 PM 55.6 °F - 33.6 °F 44% 30.11 in 10.0 mi SSW 6.9 mph - N/A   Overcast
5:58 PM 53.8 °F - 34.3 °F 48% 30.13 in 10.0 mi WSW 4.6 mph - N/A   Overcast
6:58 PM 52.7 °F - 34.2 °F 49% 30.11 in 10.0 mi South 2.3 mph - N/A   Overcast
7:58 PM 50.0 °F - 34.3 °F 55% 30.12 in 10.0 mi SW 2.3 mph - N/A   Overcast
8:58 PM 50.2 °F - 34.7 °F 55% 30.13 in 10.0 mi Calm Calm - N/A   Overcast
9:58 PM 49.3 °F - 34.9 °F 58% 30.15 in 10.0 mi WNW 4.6 mph - N/A   Overcast
10:58 PM 47.1 °F - 35.4 °F 64% 30.14 in 10.0 mi NW 6.9 mph - N/A   Overcast
11:18 PM 48.2 °F - 33.8 °F 58% 30.13 in 10.0 mi NW 11.5 mph - N/A   Overcast
11:23 PM 48.2 °F - 33.8 °F 58% 30.13 in 10.0 mi NNW 11.5 mph - N/A   Overcast
11:58 PM 47.5 °F - 35.2 °F 63% 30.14 in 10.0 mi NNW 6.9 mph - N/A   Overcast